Theta_e
351 348 347 341 325 325 319 322 329 325 325 329 333 332 330 332 327 322 346 348 350 351 354 357 363 362 361 363 361 363 363 360 360 359 359 358 361 360 362 364 363 363 363 363 362 362 361 362 362
348 345 344 339 321 315 318 327 325 329 329 332 335 334 330 327 337 340 342 348 350 349 350 354 363 363 361 362 363 364 362 362 361 361 361 360 360 359 362 362 362 362 364 363 363 363 363 362 361
354 348 334 329 323 318 320 329 329 328 330 332 334 335 331 330 338 341 347 348 347 350 353 357 365 364 361 361 361 362 362 361 361 361 361 361 362 360 359 360 362 362 364 363 361 362 361 361 360
345 344 338 323 319 326 326 330 330 329 332 335 334 328 334 340 340 345 348 347 348 353 356 363 364 363 361 362 361 360 361 361 361 361 361 362 360 361 361 361 362 360 361 361 361 361 361 358 356
344 340 324 320 323 326 331 332 333 329 332 334 331 327 329 340 344 347 347 349 349 351 355 358 365 363 361 361 362 362 362 361 360 362 362 361 360 361 361 361 361 361 361 359 361 360 361 359 357
334 339 321 318 322 329 334 337 333 332 335 332 328 327 330 342 342 345 346 348 350 350 352 356 363 364 363 362 361 361 361 361 362 362 360 361 362 360 360 361 361 361 361 361 360 361 362 359 357
331 331 322 324 325 328 332 339 333 333 333 330 333 325 333 338 342 345 348 349 347 351 353 356 358 362 362 363 361 361 361 360 360 361 360 362 362 360 360 363 360 360 360 360 362 361 361 359 357
336 335 325 326 325 325 335 337 337 335 331 341 337 325 327 337 342 344 345 346 347 348 351 354 355 356 356 357 362 362 361 361 360 361 360 359 360 359 360 363 361 359 360 361 361 360 359 358 357
341 329 322 324 326 328 335 331 337 340 335 338 340 333 336 340 342 342 341 343 346 348 350 352 353 356 360 360 359 360 361 361 361 360 358 358 356 355 357 363 361 360 360 361 360 352 355 356 357
334 328 325 331 333 333 333 332 335 334 334 333 331 335 338 339 340 340 337 341 342 345 348 352 355 355 356 352 360 356 356 356 355 356 354 360 358 355 354 359 361 360 363 361 354 347 343 353 353
333 326 330 332 336 338 334 332 336 333 330 329 328 332 335 336 337 339 337 340 339 345 350 350 357 357 355 355 359 355 357 354 357 358 363 360 351 352 354 358 358 356 360 354 355 348 346 346 350
328 334 332 333 337 335 332 335 332 333 334 338 334 334 335 334 335 337 339 339 345 346 348 349 354 352 357 351 353 354 355 354 350 356 349 362 361 356 348 354 349 345 350 344 352 354 354 356 352
328 331 333 335 334 336 336 331 331 334 340 341 335 335 334 334 335 338 340 341 344 345 346 347 356 361 363 364 360 354 350 354 353 357 361 355 361 354 348 352 346 351 351 350 354 352 353 356 350
330 331 330 332 333 336 332 330 333 335 340 337 334 333 334 334 334 338 339 340 344 346 345 352 353 360 355 368 363 352 351 354 355 355 358 364 363 364 360 359 348 350 350 354 345 355 348 357 354
332 328 328 327 334 332 334 326 329 337 338 336 333 333 333 333 335 335 339 341 343 346 349 352 351 353 359 366 368 367 354 355 354 357 361 360 363 353 347 357 355 350 355 357 351 354 354 357 354
326 325 318 325 333 333 331 321 331 336 334 332 331 332 332 333 334 338 340 341 345 348 350 353 347 350 358 364 368 362 358 357 361 358 362 364 368 366 365 357 353 364 359 359 354 357 353 346 354
322 315 318 321 332 332 330 323 331 336 332 331 330 331 331 333 335 338 339 342 344 351 351 354 352 351 358 365 367 356 360 357 360 355 359 365 366 364 356 354 356 367 360 347 356 345 355 354 350
312 315 318 319 325 326 326 326 330 334 331 330 330 330 331 332 333 337 338 340 344 350 353 358 351 358 364 362 364 360 362 356 363 360 353 370 365 361 354 358 362 353 358 354 354 359 348 354 346
317 317 317 319 329 327 325 325 327 331 330 329 329 330 331 332 337 338 338 339 343 349 352 356 356 360 359 358 354 359 353 363 365 351 355 365 367 360 354 359 364 355 351 359 364 360 358 355 353
316 314 316 318 321 321 325 324 329 331 330 330 331 330 332 332 334 336 337 337 340 347 352 357 359 361 363 359 363 361 357 364 361 360 366 367 365 367 358 352 356 359 354 365 363 360 351 356 345
312 313 317 316 319 320 320 320 324 329 334 334 334 334 334 334 333 336 339 339 340 346 350 355 360 360 362 366 361 348 349 348 350 361 361 363 365 367 366 361 351 359 362 358 364 361 354 347 355
308 317 318 317 310 310 322 311 322 327 328 331 333 333 334 335 336 338 339 339 339 344 349 356 361 359 358 367 367 359 349 346 356 360 354 362 366 366 366 366 356 361 355 352 363 361 349 350 352
311 319 317 317 313 311 312 313 314 313 324 327 333 334 334 335 337 338 340 342 342 345 346 354 359 361 359 363 366 361 358 351 349 353 355 363 366 367 365 367 364 359 360 353 358 363 365 361 353
317 315 317 316 313 305 310 310 314 312 316 328 333 334 336 338 336 339 342 342 343 341 344 352 358 361 364 362 363 360 358 348 353 358 360 358 361 362 367 365 368 367 354 358 358 366 366 365 363
313 310 305 302 302 301 312 309 315 317 320 321 332 335 337 339 339 338 339 341 343 339 345 352 357 358 361 361 361 362 360 361 350 354 348 353 349 356 362 369 371 364 364 364 367 370 364 366 362
310 311 304 298 299 302 310 308 312 318 329 331 334 335 334 333 341 339 340 344 345 345 344 350 356 358 360 361 363 366 366 363 357 360 359 351 357 356 364 364 368 370 367 367 367 365 363 364 363
309 307 313 307 307 303 308 313 319 325 325 328 330 335 337 336 340 343 343 345 346 344 343 349 356 358 360 360 363 365 366 365 359 365 368 366 362 353 356 360 366 369 365 365 368 364 364 364 364
311 314 305 307 299 298 305 308 311 319 320 323 326 327 332 336 341 342 341 343 347 349 346 352 355 358 361 361 362 362 364 366 367 369 360 370 360 350 352 352 352 364 367 364 365 363 362 363 364
308 307 309 309 306 300 300 305 320 321 322 322 324 327 329 330 333 336 339 341 345 343 340 341 347 356 360 361 362 362 362 364 366 365 369 368 371 356 351 338 340 358 365 367 367 362 357 360 360
311 309 309 303 304 306 306 305 320 323 324 324 323 325 328 327 327 332 335 338 338 336 341 343 345 347 355 360 363 363 363 363 363 364 365 369 368 369 363 354 357 362 366 363 362 363 360 359 360
Wind_Speed
9 11 9 3 3 4 3 6 7 12 9 8 24 17 20 17 8 15 21 20 22 20 16 14 13 14 13 12 13 11 14 12 11 11 10 10 11 11 12 12 13 13 14 15 15 16 15 14 14
14 13 1 2 4 3 2 14 12 10 12 19 24 22 19 25 27 25 21 24 22 19 17 15 13 13 12 12 12 13 12 12 11 12 11 11 11 10 12 12 12 12 13 15 15 16 15 14 11
13 5 2 3 1 2 8 11 11 15 14 20 19 15 16 26 25 22 23 24 23 19 18 15 14 13 12 11 11 12 12 11 11 12 12 11 11 12 11 11 13 12 13 14 15 15 14 12 9
6 4 3 4 9 15 12 13 11 18 16 18 15 14 23 19 26 27 25 20 22 21 19 15 15 14 13 12 11 12 12 12 11 12 12 12 12 12 12 12 13 12 13 14 14 14 14 11 8
3 3 4 5 10 16 15 17 16 16 18 7 21 24 20 23 24 26 24 22 22 17 17 15 14 14 12 12 12 12 12 12 12 12 11 12 13 12 12 11 13 13 14 14 13 13 13 10 7
1 4 1 2 6 18 18 18 5 18 21 17 25 23 20 22 22 22 21 21 22 20 18 15 15 14 13 13 12 11 12 12 12 11 12 11 12 12 12 11 11 13 14 13 14 12 12 9 6
10 7 4 8 11 14 11 15 7 12 22 17 17 23 20 20 18 21 22 17 16 22 19 15 13 13 12 14 13 12 12 12 11 12 12 12 12 12 11 10 11 13 14 14 13 11 11 9 5
6 5 4 2 9 6 8 9 5 16 4 7 21 17 22 20 18 19 18 18 14 19 18 15 13 14 12 11 13 12 12 11 10 10 10 11 13 13 13 9 11 15 12 14 13 10 9 8 4
4 4 4 7 10 12 10 9 3 5 3 6 7 24 22 22 21 19 15 16 14 13 16 14 13 12 11 11 10 10 11 12 11 8 10 7 8 9 10 12 11 13 11 14 17 12 8 3 6
2 3 10 11 14 15 15 11 9 4 7 8 24 26 23 21 19 22 8 15 17 17 13 16 13 13 13 11 10 8 9 7 3 8 6 4 4 7 9 8 11 12 10 17 16 13 9 6 3
9 4 7 16 15 17 16 13 6 12 6 18 26 27 23 20 17 22 16 16 15 14 10 8 10 8 9 7 8 4 5 3 4 5 6 5 6 8 6 3 1 3 6 7 8 6 3 5 7
6 17 4 13 18 15 14 15 9 5 3 12 23 24 21 20 17 20 18 16 20 20 14 12 12 3 10 4 4 6 6 6 3 2 3 1 1 7 7 3 6 2 5 4 5 7 7 9 6
2 2 15 12 17 16 15 15 12 11 7 3 23 22 21 18 17 16 17 15 17 19 13 5 13 3 9 3 5 5 7 7 6 4 2 2 3 10 9 8 4 5 1 5 2 4 3 4 3
4 15 10 17 17 17 16 16 12 13 10 14 23 22 19 18 17 14 14 15 13 18 12 14 11 4 9 3 4 3 7 7 7 4 3 3 4 4 4 4 5 0 6 5 4 2 2 1 4
26 23 11 9 22 16 21 11 13 11 12 17 19 20 18 17 18 14 20 14 12 12 16 13 12 7 9 4 3 2 3 4 8 4 5 5 6 3 4 2 5 3 4 6 4 1 1 2 3
14 12 7 10 19 18 12 10 14 9 14 18 21 20 18 17 19 15 16 15 11 12 13 11 13 11 9 6 3 5 1 3 2 7 4 4 1 4 3 4 3 1 4 2 2 4 2 4 2
12 13 16 14 18 24 9 17 15 6 14 19 19 17 17 15 17 12 16 14 15 12 12 7 13 9 12 7 2 3 6 4 4 4 3 5 3 5 4 3 4 2 3 2 2 0 1 2 3
17 21 13 11 18 21 11 17 19 17 20 16 15 15 15 16 17 14 15 14 14 12 11 6 10 9 6 4 4 1 3 3 4 5 4 3 3 10 6 6 4 5 3 2 1 5 1 2 2
19 19 16 3 13 14 18 22 18 19 15 15 12 10 14 12 15 15 15 15 16 14 12 8 11 9 7 4 4 3 4 2 0 4 9 5 2 13 9 6 3 5 2 2 2 2 1 2 2
23 16 19 14 9 12 21 17 21 21 17 14 13 15 11 12 14 16 16 16 17 15 12 9 11 9 6 6 5 3 3 1 3 5 5 4 4 3 9 4 6 5 2 2 3 4 4 3 3
22 18 16 7 8 12 13 15 21 19 18 22 17 12 16 13 11 17 14 15 16 16 14 11 11 10 8 6 7 6 5 5 1 6 5 5 4 4 3 7 3 1 1 3 1 4 2 1 2
19 12 13 12 17 14 25 11 19 22 16 18 17 13 13 17 8 18 15 9 15 17 15 12 10 12 9 6 1 9 10 4 2 4 3 5 5 4 5 6 5 3 1 4 3 5 1 2 5
16 17 24 25 15 16 17 9 3 13 17 17 19 17 18 15 16 20 17 14 13 17 15 14 11 12 9 7 4 3 5 2 2 4 6 4 6 4 5 6 6 7 4 4 2 2 2 2 4
22 14 13 16 9 13 13 11 14 6 10 15 18 15 18 18 16 18 17 11 9 16 16 15 13 11 9 9 6 6 6 2 3 5 4 7 5 5 5 4 5 6 5 4 5 3 1 2 3
20 13 10 10 10 12 20 16 11 16 6 29 20 21 17 15 13 17 20 19 16 17 19 17 15 13 11 11 10 9 7 6 5 6 7 5 0 5 6 5 3 3 6 5 3 0 3 3 3
16 19 11 16 13 12 16 11 11 14 25 7 13 9 9 18 17 19 17 20 18 13 19 20 18 14 13 11 10 8 7 4 8 9 1 5 4 2 7 5 4 3 5 4 4 4 3 4 2
16 17 17 16 18 15 10 19 21 18 13 9 9 13 10 26 30 21 19 20 18 16 17 19 19 17 15 14 10 10 9 9 6 6 5 2 7 6 4 3 7 5 5 5 4 3 4 3 4
16 11 17 15 15 14 15 18 18 18 12 7 8 12 12 19 20 9 9 7 10 9 7 8 19 18 16 14 12 11 10 10 7 5 6 3 5 1 6 4 6 5 5 6 6 4 5 5 4
10 12 14 17 14 10 7 7 19 19 13 10 9 10 9 15 15 13 13 9 16 15 14 14 14 18 14 13 14 13 12 12 9 6 4 4 2 11 7 4 7 10 5 5 5 5 3 6 5
21 13 16 13 17 7 7 4 6 16 14 12 10 12 12 15 13 13 14 12 15 15 12 3 9 15 5 15 12 13 12 11 12 9 8 6 6 4 9 11 11 9 5 7 6 6 5 8 6
Wind_Direction
199 207 208 277 248 220 240 125 134 124 146 99 67 77 68 41 87 108 135 133 126 125 127 125 118 113 110 109 107 102 98 96 96 97 96 90 81 85 96 93 89 87 92 95 94 101 101 102 103
212 210 268 268 239 212 104 106 120 159 125 84 61 66 66 84 103 117 134 128 127 131 131 126 119 111 106 102 107 99 93 92 90 88 98 87 94 92 96 94 98 100 101 100 102 105 104 101 108
256 239 94 270 226 213 124 133 127 113 118 92 86 58 88 113 119 112 115 129 133 134 115 125 121 117 112 105 105 105 97 95 101 96 101 97 103 100 102 109 103 104 106 100 98 98 100 101 105
228 18 118 224 237 105 135 141 128 108 86 87 112 81 108 109 117 124 128 138 117 115 115 128 132 125 118 108 110 105 105 98 98 97 98 106 101 107 108 111 110 107 108 106 106 104 106 105 108
198 262 222 250 130 119 66 131 117 116 93 57 99 117 114 108 122 132 139 116 113 114 122 128 128 123 119 115 115 110 104 103 104 104 105 96 102 114 113 110 110 114 117 110 110 110 108 114 112
308 257 114 171 72 101 68 25 16 97 96 103 118 113 110 123 142 130 132 131 136 130 115 125 124 124 119 116 114 112 109 106 107 104 106 113 111 115 112 119 115 108 106 110 108 116 112 115 105
242 275 273 148 122 92 94 75 16 110 114 121 120 119 127 147 145 124 125 139 135 125 119 134 131 121 122 115 116 115 113 117 116 120 126 119 115 119 122 117 106 112 120 113 109 114 116 114 122
225 275 306 169 149 92 109 93 38 22 29 111 126 142 142 140 159 127 126 152 122 131 136 134 134 137 132 122 121 124 127 129 140 137 132 134 128 125 123 119 106 109 106 118 110 102 112 135 165
144 272 360 29 146 131 130 117 127 311 314 291 176 146 139 154 147 120 129 114 112 115 126 100 118 128 132 131 129 135 144 149 151 133 129 171 144 128 142 93 105 117 143 127 88 60 13 250 211
173 264 41 70 116 133 116 102 106 120 266 160 125 131 146 157 147 119 148 112 147 120 131 135 138 141 155 130 163 147 149 169 134 119 200 213 130 108 104 131 142 144 157 107 111 154 189 250 264
147 275 97 110 114 129 132 132 140 152 197 141 134 140 157 156 160 137 143 156 135 92 94 124 128 144 156 132 163 152 171 168 153 150 223 180 110 126 134 103 181 202 131 113 169 196 187 206 231
116 229 142 112 138 133 146 143 141 111 274 132 137 146 155 165 159 145 155 160 113 118 177 145 135 135 149 160 119 180 176 119 128 197 123 54 111 91 47 64 338 7 125 86 318 240 202 246 124
308 230 218 128 111 125 131 151 132 115 236 240 141 156 158 163 160 152 137 143 122 120 131 151 95 164 74 112 92 146 106 142 145 86 167 225 112 136 169 162 196 55 70 36 253 290 48 63 49
114 262 252 148 149 122 134 141 136 138 156 163 153 163 163 163 161 140 121 129 131 137 147 112 105 112 76 68 68 86 194 133 152 145 124 120 85 69 57 81 117 177 150 175 206 207 146 85 87
182 224 206 187 128 126 124 146 125 133 152 173 163 165 167 167 140 153 129 126 137 134 122 125 127 159 127 109 134 100 43 72 105 109 77 90 89 352 109 14 127 178 228 136 227 201 320 77 92
214 227 202 181 142 151 160 123 136 141 154 158 158 167 168 167 147 165 134 140 143 133 122 160 144 146 135 120 242 82 23 104 87 134 152 130 95 176 67 107 306 195 78 25 333 21 167 114 131
207 227 185 186 140 158 135 134 147 169 166 160 168 166 165 164 145 167 142 149 150 126 132 199 125 154 138 157 111 106 120 151 108 71 126 143 182 71 19 149 208 94 86 91 18 166 1 190 44
205 227 181 157 287 106 132 132 151 167 172 169 171 168 164 164 158 170 152 154 142 136 138 182 138 134 138 155 155 143 118 119 103 96 7 160 120 89 356 293 112 71 107 249 178 160 54 58 206
218 218 178 17 131 158 143 139 156 155 164 166 177 170 160 165 166 165 164 160 148 148 155 177 136 146 141 187 151 165 176 127 98 121 186 145 175 132 182 272 108 118 191 110 267 119 163 149 47
256 260 124 154 92 43 136 159 163 159 171 184 204 173 175 172 179 165 170 169 159 150 161 164 143 152 190 194 173 152 59 113 182 173 183 144 181 133 111 287 347 72 19 327 14 81 335 287 97
238 243 165 165 106 239 148 196 159 180 179 176 191 189 186 196 200 166 182 168 160 154 164 167 157 163 210 216 117 83 39 306 242 149 180 165 174 182 135 126 85 333 87 296 196 79 62 27 334
227 236 119 129 183 174 189 140 180 167 182 168 181 186 183 204 239 165 175 171 177 157 162 165 170 168 212 232 75 160 170 196 202 180 152 157 182 161 154 146 158 105 81 300 242 125 258 320 279
235 168 180 210 214 215 196 111 128 27 173 161 174 182 195 215 215 177 170 177 190 157 164 163 176 170 196 210 161 207 106 210 63 301 146 207 147 171 164 187 143 133 134 281 70 318 96 8 337
240 270 159 245 220 232 204 279 154 170 260 180 171 194 194 198 200 175 175 177 226 162 166 161 173 182 195 195 171 224 141 197 211 181 181 192 173 168 218 174 159 133 147 217 183 218 31 354 330
228 239 198 209 220 240 190 204 103 107 263 256 179 182 188 204 207 190 176 183 203 175 167 158 172 181 195 187 197 200 207 166 118 179 219 143 132 183 191 150 148 170 180 205 139 127 25 294 312
216 233 212 204 221 230 249 141 169 163 151 289 106 149 62 306 229 199 196 186 192 196 169 163 168 178 187 193 201 200 218 207 185 214 180 152 145 282 139 161 185 231 180 248 156 175 203 229 243
199 241 254 222 227 231 110 108 151 138 100 88 89 51 160 215 226 203 202 180 189 200 173 169 168 175 184 196 196 198 204 232 219 193 186 176 128 126 81 331 187 206 191 206 179 239 199 181 224
274 232 240 247 265 254 134 158 150 142 120 101 70 50 15 30 31 39 11 268 178 220 49 173 168 174 182 194 198 200 202 213 231 252 171 191 108 169 115 70 324 214 206 195 197 233 239 199 188
218 247 252 264 256 235 171 58 130 118 126 124 94 72 46 53 38 53 69 58 58 37 32 328 310 168 184 196 192 198 200 202 215 223 195 188 156 151 156 141 260 263 211 205 201 225 193 235 227
248 240 235 240 249 77 95 333 6 114 115 105 96 78 66 76 61 59 61 67 73 54 54 280 306 30 262 194 198 195 188 201 193 207 203 190 178 217 173 180 203 202 206 200 215 245 238 193 210